| time (UTC) | temp C | wind direction | speed KPH | gust KPH | rain 1hr cm | rain 24hr cm | rain mn cm | humidity % | barometer mb |
| 20260508004539 | 15 | 249 | 14.5 | 25.7 | 0.00 | 0.00 | 0.00 | 42 | 1008.4 |
| 20260508003055 | 16 | 276 | 17.7 | 30.6 | 0.00 | 0.00 | 0.00 | 42 | 1008.3 |
| 20260508001541 | 16 | 258 | 17.7 | 25.7 | 0.00 | 0.00 | 0.00 | 42 | 1008.3 |
| 20260508000042 | 16 | 274 | 9.7 | 17.7 | 0.00 | 0.00 | 0.00 | 44 | 1008.3 |
| 20260507234539 | 16 | 300 | 16.1 | 24.1 | 0.00 | 0.00 | 0.00 | 44 | 1008.1 |
| 20260507233036 | 15 | 249 | 11.3 | 22.5 | 0.00 | 0.00 | 0.00 | 48 | 1008.1 |
| 20260507231531 | 15 | 286 | 14.5 | 20.9 | 0.00 | 0.00 | 0.00 | 47 | 1008.2 |
| 20260507230130 | 15 | 267 | 14.5 | 22.5 | 0.00 | 0.00 | 0.00 | 49 | 1008.1 |
| 20260507224533 | 15 | 270 | 12.9 | 16.1 | 0.00 | 0.00 | 0.00 | 49 | 1008.4 |
| 20260507223027 | 15 | 246 | 9.7 | 19.3 | 0.00 | 0.00 | 0.00 | 49 | 1008.2 |
| 20260507221528 | 15 | 277 | 6.4 | 17.7 | 0.00 | 0.00 | 0.00 | 51 | 1008.3 |
| 20260507220025 | 14 | 290 | 12.9 | 22.5 | 0.00 | 0.00 | 0.00 | 50 | 1008.4 |
| 20260507214523 | 15 | 242 | 9.7 | 19.3 | 0.00 | 0.00 | 0.00 | 47 | 1008.4 |
| 20260507213023 | 14 | 253 | 9.7 | 14.5 | 0.00 | 0.00 | 0.00 | 50 | 1008.6 |
| 20260507211521 | 14 | 254 | 8.0 | 16.1 | 0.00 | 0.00 | 0.00 | 49 | 1008.7 |
| 20260507210019 | 15 | 227 | 16.1 | 22.5 | 0.00 | 0.00 | 0.00 | 47 | 1008.9 |
| 20260507204518 | 14 | 267 | 11.3 | 22.5 | 0.00 | 0.00 | 0.00 | 48 | 1008.9 |
| 20260507203018 | 14 | 267 | 12.9 | 24.1 | 0.00 | 0.00 | 0.00 | 49 | 1008.9 |
| 20260507201520 | 14 | 266 | 16.1 | 24.1 | 0.00 | 0.00 | 0.00 | 49 | 1008.9 |
| 20260507200017 | 15 | 297 | 16.1 | 27.4 | 0.00 | 0.00 | 0.00 | 46 | 1008.9 |
| 20260507194516 | 15 | 241 | 14.5 | 25.7 | 0.00 | 0.00 | 0.00 | 47 | 1008.8 |
| 20260507193013 | 14 | 225 | 9.7 | 19.3 | 0.00 | 0.00 | 0.00 | 49 | 1008.8 |
| 20260507191511 | 14 | 252 | 6.4 | 12.9 | 0.00 | 0.00 | 0.00 | 48 | 1008.9 |
| 20260507190008 | 13 | 246 | 12.9 | 19.3 | 0.00 | 0.00 | 0.00 | 47 | 1009.2 |
| 20260507184511 | 12 | 253 | 4.8 | 17.7 | 0.00 | 0.00 | 0.00 | 52 | 1009.4 |
| 20260507183004 | 12 | 291 | 8.0 | 20.9 | 0.00 | 0.00 | 0.00 | 55 | 1009.9 |
| 20260507181503 | 12 | 262 | 14.5 | 24.1 | 0.00 | 0.00 | 0.00 | 53 | 1009.9 |
| 20260507180100 | 12 | 274 | 8.0 | 14.5 | 0.00 | 0.00 | 0.00 | 57 | 1009.9 |
| 20260507174559 | 12 | 281 | 8.0 | 11.3 | 0.00 | 0.00 | 0.00 | 55 | 1010.0 |
| 20260507173102 | 12 | 267 | 4.8 | 14.5 | 0.00 | 0.00 | 0.00 | 59 | 1010.1 |
| 20260507171559 | 12 | 305 | 11.3 | 16.1 | 0.00 | 0.00 | 0.00 | 56 | 1010.1 |
| 20260507170057 | 12 | 239 | 9.7 | 20.9 | 0.00 | 0.00 | 0.00 | 52 | 1010.1 |
| 20260507164556 | 12 | 246 | 16.1 | 0.0 | 0.00 | 0.00 | 0.00 | 49 | 1010.0 |
| 20260507163054 | 13 | 252 | 14.5 | 24.1 | 0.00 | 0.00 | 0.00 | 52 | 1009.9 |
| 20260507161550 | 12 | 280 | 9.7 | 19.3 | 0.00 | 0.00 | 0.00 | 56 | 1010.0 |
| 20260507160049 | 11 | 241 | 4.8 | 8.0 | 0.00 | 0.00 | 0.00 | 60 | 1010.3 |
| 20260507154547 | 11 | 359 | 4.8 | 11.3 | 0.00 | 0.00 | 0.00 | 63 | 1010.3 |
| 20260507153046 | 11 | 244 | 0.0 | 6.4 | 0.00 | 0.00 | 0.00 | 66 | 1010.4 |
| 20260507151546 | 10 | 201 | 3.2 | 8.0 | 0.00 | 0.00 | 0.00 | 68 | 1010.5 |
| 20260507150045 | 10 | 244 | 3.2 | 8.0 | 0.00 | 0.00 | 0.00 | 67 | 1010.6 |
| 20260507144543 | 10 | 265 | 8.0 | 11.3 | 0.00 | 0.00 | 0.00 | 70 | 1010.5 |
| 20260507143042 | 8 | 88 | 0.0 | 1.6 | 0.00 | 0.00 | 0.00 | 73 | 1010.6 |
| 20260507141541 | 8 | 88 | 0.0 | 3.2 | 0.00 | 0.00 | 0.00 | 76 | 1010.6 |
| 20260507140056 | 6 | 68 | 0.0 | 1.6 | 0.00 | 0.00 | 0.00 | 83 | 1010.7 |
| 20260507134540 | 4 | 68 | 0.0 | 1.6 | 0.00 | 0.00 | 0.00 | 87 | 1010.7 |
| 20260507133040 | 4 | 68 | 0.0 | 1.6 | 0.00 | 0.00 | 0.00 | 87 | 1010.7 |
| 20260507131545 | 3 | 78 | 1.6 | 4.8 | 0.00 | 0.00 | 0.00 | 87 | 1010.6 |
| 20260507130038 | 3 | 71 | 0.0 | 3.2 | 0.00 | 0.00 | 0.00 | 88 | 1010.3 |
| 20260507124537 | 3 | 58 | 1.6 | 6.4 | 0.00 | 0.00 | 0.00 | 89 | 1010.4 |
| 20260507123034 | 3 | 98 | 0.0 | 3.2 | 0.00 | 0.00 | 0.00 | 88 | 1010.5 |
| 20260507121532 | 3 | 97 | 0.0 | 1.6 | 0.00 | 0.00 | 0.00 | 87 | 1010.4 |
| 20260507120029 | 3 | 98 | 0.0 | 1.6 | 0.00 | 0.00 | 0.00 | 86 | 1010.3 |
| 20260507114526 | 4 | 353 | 0.0 | 3.2 | 0.00 | 0.00 | 0.00 | 86 | 1010.2 |
| 20260507113024 | 5 | 109 | 0.0 | 1.6 | 0.00 | 0.00 | 0.00 | 84 | 1010.2 |
| 20260507111522 | 5 | 113 | 0.0 | 3.2 | 0.00 | 0.00 | 0.00 | 84 | 1010.2 |
| 20260507110018 | 5 | 113 | 0.0 | 1.6 | 0.00 | 0.00 | 0.00 | 82 | 1010.2 |
| 20260507104524 | 6 | 113 | 0.0 | 1.6 | 0.00 | 0.00 | 0.00 | 79 | 1010.4 |
| 20260507103011 | 7 | 113 | 0.0 | 1.6 | 0.00 | 0.00 | 0.00 | 76 | 1010.5 |
| 20260507101510 | 8 | 113 | 1.6 | 3.2 | 0.00 | 0.00 | 0.00 | 72 | 1010.6 |
| 20260507100013 | 9 | 204 | 4.8 | 11.3 | 0.00 | 0.00 | 0.00 | 68 | 1010.9 |
| 20260507094505 | 10 | 201 | 9.7 | 16.1 | 0.00 | 0.00 | 0.00 | 69 | 1011.1 |
| 20260507093003 | 10 | 251 | 6.4 | 17.7 | 0.00 | 0.00 | 0.00 | 68 | 1011.4 |
| 20260507091507 | 11 | 276 | 22.5 | 46.7 | 0.00 | 0.00 | 0.00 | 58 | 1011.0 |
| 20260507090114 | 12 | 246 | 9.7 | 25.7 | 0.00 | 0.00 | 0.00 | 55 | 1010.2 |
| 20260507084556 | 12 | 229 | 14.5 | 29.0 | 0.00 | 0.00 | 0.00 | 54 | 1010.0 |
| 20260507083059 | 12 | 228 | 17.7 | 32.2 | 0.00 | 0.00 | 0.00 | 53 | 1010.0 |
| 20260507081555 | 12 | 225 | 19.3 | 29.0 | 0.00 | 0.00 | 0.00 | 52 | 1010.1 |
| 20260507080046 | 12 | 215 | 17.7 | 27.4 | 0.00 | 0.00 | 0.00 | 52 | 1010.3 |
| 20260507074543 | 11 | 232 | 16.1 | 25.7 | 0.00 | 0.00 | 0.00 | 53 | 1010.3 |
| 20260507073054 | 10 | 291 | 4.8 | 12.9 | 0.00 | 0.00 | 0.00 | 58 | 1010.6 |
| 20260507071539 | 10 | 260 | 8.0 | 14.5 | 0.00 | 0.00 | 0.00 | 58 | 1010.7 |
| 20260507070041 | 8 | 242 | 1.6 | 3.2 | 0.00 | 0.00 | 0.00 | 66 | 1010.7 |
| 20260507064534 | 8 | 83 | 1.6 | 3.2 | 0.00 | 0.00 | 0.00 | 68 | 1010.6 |
| 20260507063031 | 8 | 133 | 1.6 | 3.2 | 0.00 | 0.00 | 0.00 | 68 | 1010.6 |
| 20260507061532 | 8 | 110 | 0.0 | 1.6 | 0.00 | 0.00 | 0.00 | 67 | 1010.8 |
| 20260507060029 | 10 | 111 | 1.6 | 3.2 | 0.00 | 0.00 | 0.00 | 63 | 1011.0 |
| 20260507054524 | 10 | 102 | 1.6 | 1.6 | 0.00 | 0.00 | 0.00 | 61 | 1011.2 |
| 20260507053023 | 11 | 101 | 0.0 | 3.2 | 0.00 | 0.00 | 0.00 | 59 | 1011.2 |
| 20260507051523 | 11 | 235 | 0.0 | 4.8 | 0.00 | 0.00 | 0.00 | 56 | 1011.2 |
| 20260507050030 | 12 | 239 | 1.6 | 6.4 | 0.00 | 0.00 | 0.00 | 52 | 1011.4 |
| 20260507044534 | 12 | 177 | 3.2 | 6.4 | 0.00 | 0.00 | 0.00 | 51 | 1011.5 |
| 20260507043018 | 12 | 252 | 6.4 | 12.9 | 0.00 | 0.00 | 0.00 | 51 | 1011.9 |
| 20260507041518 | 12 | 258 | 1.6 | 6.4 | 0.00 | 0.00 | 0.00 | 50 | 1011.8 |
| 20260507040019 | 13 | 258 | 4.8 | 8.0 | 0.00 | 0.00 | 0.00 | 48 | 1011.6 |
| 20260507034516 | 13 | 232 | 6.4 | 14.5 | 0.00 | 0.00 | 0.00 | 46 | 1011.3 |
| 20260507033015 | 13 | 201 | 14.5 | 27.4 | 0.00 | 0.00 | 0.00 | 48 | 1011.5 |
| 20260507031514 | 14 | 238 | 11.3 | 29.0 | 0.00 | 0.00 | 0.00 | 49 | 1011.8 |
| 20260507030014 | 14 | 215 | 12.9 | 25.7 | 0.00 | 0.00 | 0.00 | 47 | 1011.7 |
| 20260507024513 | 14 | 232 | 16.1 | 22.5 | 0.00 | 0.00 | 0.00 | 47 | 1011.6 |
| 20260507023013 | 14 | 225 | 12.9 | 20.9 | 0.00 | 0.00 | 0.00 | 46 | 1011.7 |
| 20260507021509 | 14 | 204 | 11.3 | 25.7 | 0.00 | 0.00 | 0.00 | 47 | 1011.7 |
| 20260507020009 | 15 | 251 | 14.5 | 25.7 | 0.00 | 0.00 | 0.00 | 47 | 1012.0 |
| 20260507014508 | 15 | 234 | 12.9 | 27.4 | 0.00 | 0.00 | 0.00 | 46 | 1012.0 |
| 20260507013007 | 15 | 251 | 25.7 | 41.8 | 0.00 | 0.00 | 0.00 | 43 | 1012.3 |
| 20260507011506 | 16 | 245 | 12.9 | 25.7 | 0.00 | 0.00 | 0.00 | 41 | 1012.0 |
| 20260507010003 | 16 | 258 | 11.3 | 17.7 | 0.00 | 0.00 | 0.00 | 40 | 1012.2 |